When you browse on this site, cookies collect data to enhance your experience and personalize the content and advertising you see.
Visit our Privacy Policy to learn more. By continuing to use the site, you agree to this use of cookies and data.
  • en Suisse
  • Liste des pays
  • À 7 jours
  • Température de l'eau
  • Carte météo
  • Widgets météo
  • user-avatar
    Se connecter

    Météo par heure à Cannes

    Ce jour, 4 Juin, Jeudi

    Heure Température Précipitation Vent Pression Humidité
    00:00 +19°C° 0 mm 3 m/s 753 mmHg 85%
    01:00 +19°C° 0.4 mm 3 m/s 752 mmHg 86%
    02:00 +19°C° 0.4 mm 3 m/s 751 mmHg 87%
    03:00 +19°C° 0.4 mm 3 m/s 751 mmHg 88%
    04:00 +19°C° 2.9 mm 3 m/s 750 mmHg 90%
    05:00 +18°C° 2.9 mm 3 m/s 750 mmHg 92%
    06:00 +18°C° 2.9 mm 3 m/s 750 mmHg 95%
    07:00 +18°C° 2.8 mm 3 m/s 750 mmHg 95%
    08:00 +18°C° 2.8 mm 3 m/s 750 mmHg 95%
    09:00 +18°C° 2.8 mm 3 m/s 749 mmHg 95%
    10:00 +18°C° 2.7 mm 3 m/s 749 mmHg 95%
    11:00 +18°C° 2.7 mm 2 m/s 749 mmHg 96%
    12:00 +19°C° 2.7 mm 2 m/s 749 mmHg 96%
    13:00 +19°C° 3.5 mm 2 m/s 748 mmHg 96%
    14:00 +18°C° 3.5 mm 2 m/s 748 mmHg 95%
    15:00 +18°C° 3.5 mm 2 m/s 747 mmHg 95%
    16:00 +19°C° 0.4 mm 3 m/s 747 mmHg 90%
    17:00 +19°C° 0.4 mm 4 m/s 747 mmHg 84%
    18:00 +19°C° 0.4 mm 5 m/s 746 mmHg 79%
    19:00 +19°C° 0 mm 6 m/s 747 mmHg 80%
    20:00 +17°C° 0 mm 6 m/s 747 mmHg 80%
    21:00 +16°C° 0 mm 7 m/s 747 mmHg 80%
    22:00 +16°C° 0 mm 7 m/s 747 mmHg 80%
    23:00 +16°C° 0 mm 7 m/s 747 mmHg 79%

    Demain, 5 Juin, Vendredi

    Heure Température Précipitation Vent Pression Humidité
    00:00 +16°C° 0 mm 7 m/s 747 mmHg 78%
    01:00 +15°C° 0 mm 6 m/s 747 mmHg 78%
    02:00 +15°C° 0 mm 6 m/s 746 mmHg 78%
    03:00 +15°C° 0 mm 5 m/s 746 mmHg 78%
    04:00 +17°C° 0 mm 4 m/s 746 mmHg 76%
    05:00 +17°C° 0 mm 4 m/s 747 mmHg 73%
    06:00 +18°C° 0 mm 4 m/s 747 mmHg 71%
    07:00 +20°C° 0 mm 4 m/s 747 mmHg 64%
    08:00 +21°C° 0 mm 4 m/s 748 mmHg 58%
    09:00 +23°C° 0 mm 4 m/s 748 mmHg 52%
    10:00 +25°C° 0 mm 4 m/s 748 mmHg 50%
    11:00 +26°C° 0 mm 4 m/s 749 mmHg 47%
    12:00 +27°C° 0 mm 4 m/s 749 mmHg 45%
    13:00 +27°C° 0 mm 4 m/s 749 mmHg 44%
    14:00 +27°C° 0 mm 4 m/s 749 mmHg 44%
    15:00 +28°C° 0 mm 4 m/s 749 mmHg 43%
    16:00 +26°C° 0 mm 4 m/s 750 mmHg 47%
    17:00 +25°C° 0 mm 4 m/s 750 mmHg 51%
    18:00 +24°C° 0 mm 3 m/s 750 mmHg 55%
    19:00 +22°C° 0 mm 3 m/s 751 mmHg 58%
    20:00 +20°C° 0 mm 3 m/s 752 mmHg 62%
    21:00 +19°C° 0 mm 3 m/s 752 mmHg 66%
    22:00 +18°C° 0 mm 4 m/s 753 mmHg 66%
    23:00 +18°C° 0 mm 4 m/s 753 mmHg 67%

    Après-demain, 6 Juin, Samedi

    Heure Température Précipitation Vent Pression Humidité
    00:00 +17°C° 0 mm 5 m/s 753 mmHg 68%
    01:00 +16°C° 0 mm 5 m/s 753 mmHg 68%
    02:00 +16°C° 0 mm 5 m/s 753 mmHg 67%
    03:00 +16°C° 0 mm 5 m/s 754 mmHg 67%
    04:00 +18°C° 0 mm 4 m/s 754 mmHg 66%
    05:00 +19°C° 0 mm 4 m/s 754 mmHg 64%
    06:00 +20°C° 0 mm 4 m/s 754 mmHg 63%
    07:00 +22°C° 0 mm 4 m/s 754 mmHg 58%
    08:00 +24°C° 0 mm 3 m/s 754 mmHg 53%
    09:00 +26°C° 0 mm 3 m/s 754 mmHg 48%
    10:00 +27°C° 0 mm 3 m/s 754 mmHg 49%
    11:00 +27°C° 0 mm 4 m/s 755 mmHg 50%
    12:00 +27°C° 0 mm 4 m/s 755 mmHg 52%
    13:00 +27°C° 0 mm 4 m/s 754 mmHg 52%
    14:00 +27°C° 0 mm 5 m/s 754 mmHg 53%
    15:00 +28°C° 0 mm 5 m/s 754 mmHg 53%
    16:00 +27°C° 0 mm 5 m/s 754 mmHg 56%
    17:00 +26°C° 0 mm 6 m/s 754 mmHg 59%
    18:00 +24°C° 0 mm 6 m/s 754 mmHg 62%
    19:00 +23°C° 0 mm 7 m/s 754 mmHg 66%
    20:00 +22°C° 0 mm 7 m/s 754 mmHg 69%
    21:00 +21°C° 0 mm 8 m/s 755 mmHg 73%
    22:00 +20°C° 0 mm 7 m/s 755 mmHg 75%
    23:00 +20°C° 0 mm 7 m/s 754 mmHg 77%

    7 Juin, Dimanche

    Heure Température Précipitation Vent Pression Humidité
    00:00 +20°C° 0 mm 6 m/s 754 mmHg 79%
    01:00 +19°C° 0 mm 6 m/s 754 mmHg 79%
    02:00 +19°C° 0 mm 5 m/s 754 mmHg 79%
    03:00 +19°C° 0 mm 5 m/s 754 mmHg 78%
    04:00 +20°C° 0 mm 5 m/s 754 mmHg 76%
    05:00 +20°C° 0 mm 5 m/s 754 mmHg 73%
    06:00 +21°C° 0 mm 5 m/s 754 mmHg 71%
    07:00 +22°C° 0 mm 5 m/s 754 mmHg 67%
    08:00 +23°C° 0 mm 5 m/s 754 mmHg 63%
    09:00 +23°C° 0 mm 5 m/s 755 mmHg 60%
    10:00 +26°C° 0 mm 5 m/s 754 mmHg 55%
    11:00 +27°C° 0 mm 6 m/s 754 mmHg 50%
    12:00 +28°C° 0 mm 6 m/s 754 mmHg 45%
    13:00 +27°C° 0 mm 6 m/s 754 mmHg 46%
    14:00 +27°C° 0 mm 6 m/s 754 mmHg 47%
    15:00 +27°C° 0 mm 6 m/s 754 mmHg 48%
    16:00 +26°C° 0 mm 6 m/s 754 mmHg 52%
    17:00 +24°C° 0 mm 7 m/s 754 mmHg 55%
    18:00 +23°C° 0 mm 7 m/s 753 mmHg 58%
    19:00 +22°C° 0 mm 7 m/s 754 mmHg 63%
    20:00 +21°C° 0 mm 7 m/s 754 mmHg 68%
    21:00 +19°C° 0 mm 6 m/s 754 mmHg 73%
    22:00 +19°C° 0 mm 6 m/s 754 mmHg 73%
    23:00 +19°C° 0 mm 5 m/s 754 mmHg 73%

    8 Juin, Lundi

    Heure Température Précipitation Vent Pression Humidité
    00:00 +17°C° 0 mm 5 m/s 754 mmHg 73%
    01:00 +18°C° 0 mm 4 m/s 754 mmHg 73%
    02:00 +18°C° 0 mm 4 m/s 754 mmHg 73%
    03:00 +17°C° 0 mm 3 m/s 754 mmHg 72%
    04:00 +18°C° 0 mm 3 m/s 754 mmHg 70%
    05:00 +19°C° 0 mm 3 m/s 754 mmHg 68%
    06:00 +20°C° 0 mm 3 m/s 754 mmHg 66%
    07:00 +21°C° 0.1 mm 3 m/s 755 mmHg 65%
    08:00 +22°C° 0.1 mm 3 m/s 755 mmHg 64%
    09:00 +24°C° 0.1 mm 3 m/s 755 mmHg 63%
    10:00 +24°C° 0.2 mm 3 m/s 755 mmHg 59%
    11:00 +25°C° 0.2 mm 3 m/s 755 mmHg 55%
    12:00 +26°C° 0.2 mm 4 m/s 755 mmHg 51%
    13:00 +26°C° 0 mm 4 m/s 755 mmHg 50%
    14:00 +26°C° 0 mm 4 m/s 755 mmHg 48%
    15:00 +27°C° 0 mm 4 m/s 754 mmHg 46%
    16:00 +26°C° 0 mm 4 m/s 755 mmHg 49%
    17:00 +25°C° 0 mm 4 m/s 755 mmHg 53%
    18:00 +23°C° 0 mm 4 m/s 755 mmHg 56%
    19:00 +22°C° 0 mm 4 m/s 755 mmHg 61%
    20:00 +20°C° 0 mm 3 m/s 756 mmHg 66%
    21:00 +19°C° 0 mm 3 m/s 756 mmHg 71%
    22:00 +18°C° 0 mm 3 m/s 756 mmHg 72%
    23:00 +18°C° 0 mm 3 m/s 756 mmHg 72%

    9 Juin, Mardi

    Heure Température Précipitation Vent Pression Humidité
    00:00 +17°C° 0 mm 3 m/s 756 mmHg 73%
    01:00 +17°C° 0 mm 3 m/s 756 mmHg 73%
    02:00 +17°C° 0 mm 3 m/s 756 mmHg 73%
    03:00 +17°C° 0 mm 2 m/s 756 mmHg 73%
    04:00 +18°C° 0 mm 3 m/s 756 mmHg 70%
    05:00 +19°C° 0 mm 3 m/s 757 mmHg 68%
    06:00 +20°C° 0 mm 3 m/s 757 mmHg 65%
    07:00 +21°C° 0 mm 3 m/s 757 mmHg 61%
    08:00 +24°C° 0 mm 3 m/s 757 mmHg 56%
    09:00 +25°C° 0 mm 2 m/s 757 mmHg 52%
    10:00 +25°C° 0.2 mm 2 m/s 757 mmHg 52%
    11:00 +25°C° 0.2 mm 3 m/s 758 mmHg 53%
    12:00 +25°C° 0.2 mm 3 m/s 758 mmHg 54%
    13:00 +25°C° 0.2 mm 2 m/s 758 mmHg 53%
    14:00 +25°C° 0.2 mm 2 m/s 757 mmHg 53%
    15:00 +25°C° 0.2 mm 2 m/s 757 mmHg 52%
    16:00 +25°C° 0.1 mm 2 m/s 757 mmHg 56%
    17:00 +24°C° 0.1 mm 2 m/s 757 mmHg 59%
    18:00 +23°C° 0.1 mm 1 m/s 758 mmHg 62%
    19:00 +22°C° 0 mm 1 m/s 758 mmHg 66%
    20:00 +20°C° 0 mm 2 m/s 758 mmHg 69%
    21:00 +18°C° 0 mm 2 m/s 759 mmHg 72%
    22:00 +18°C° 0 mm 2 m/s 759 mmHg 74%
    23:00 +17°C° 0 mm 2 m/s 759 mmHg 75%
    Voir plus